Location: Slemon Park
(46.4340°N, 63.8219°W)
Time: 16:14:34
(UTC-03:00)

ISS - All Passes

Search period start: 26 July 2014 00:00
Search period end: 05 August 2014 00:00
Orbit: 411 x 420 km, 51.6° (Epoch: 26 July)

Date Brightness Start Highest point End Pass type
(mag) Time Alt. Az. Time Alt. Az. Time Alt. Az.
26 Jul - 00:47:48 10° S 00:49:54 16° SE 00:52:00 10° E visible
26 Jul - 02:22:51 10° WSW 02:26:12 88° SSE 02:29:35 10° ENE visible
26 Jul - 04:00:04 10° WNW 04:03:11 35° N 04:06:20 10° ENE visible
26 Jul - 05:37:14 10° WNW 05:40:25 38° NNE 05:43:37 10° E daylight
26 Jul - 07:13:57 10° WNW 07:17:18 64° SSW 07:20:38 10° SE daylight
26 Jul - 08:52:36 10° WSW 08:53:27 11° SW 08:54:18 10° SSW daylight
27 Jul - 01:34:09 10° SW 01:37:26 58° SSE 01:40:45 10° ENE visible
27 Jul - 03:11:05 10° W 03:14:17 40° NNW 03:17:30 10° ENE visible
27 Jul - 04:48:23 10° WNW 04:51:30 34° N 04:54:38 10° ENE visible
27 Jul - 06:25:09 10° WNW 06:28:32 84° NNE 06:31:54 10° ESE daylight
27 Jul - 08:02:33 10° W 08:04:53 18° SW 08:07:13 10° S daylight
28 Jul - 00:45:38 10° SSW 00:48:44 36° SE 00:51:51 10° ENE visible
28 Jul - 02:22:07 10° W 02:25:24 50° NNW 02:28:42 10° ENE visible
28 Jul - 03:59:30 10° WNW 04:02:35 32° N 04:05:40 10° ENE visible
28 Jul - 05:36:22 10° WNW 05:39:43 60° NNE 05:43:03 10° ESE daylight
28 Jul - 07:13:20 10° W 07:16:16 28° SW 07:19:11 10° SSE daylight
28 Jul - 23:57:24 10° SSW 00:00:05 23° SE 00:02:47 10° E night (unlit)
29 Jul - 01:33:13 10° WSW 01:36:33 69° NNW 01:39:55 10° ENE visible
29 Jul - 03:10:34 10° WNW 03:13:39 32° N 03:16:44 10° ENE visible
29 Jul - 04:47:35 10° WNW 04:50:51 45° NNE 04:54:06 10° E visible
29 Jul - 06:24:22 10° WNW 06:27:36 44° SW 06:30:49 10° SE daylight
29 Jul - 23:09:38 10° SSE 23:11:30 14° SE 23:13:22 10° E night (unlit)
30 Jul - 00:44:25 10° WSW 00:47:45 82° SSE 00:51:08 10° ENE visible
30 Jul - 02:21:35 10° WNW 02:24:43 35° N 02:27:52 10° ENE visible
30 Jul - 03:58:47 10° WNW 04:01:57 37° N 04:05:08 10° E visible
30 Jul - 05:35:30 10° WNW 05:38:52 70° SSW 05:42:13 10° SE daylight
30 Jul - 07:13:43 10° WSW 07:15:03 12° SW 07:16:23 10° SSW daylight
30 Jul - 23:55:45 10° SW 23:59:00 52° SSE 00:02:18 10° ENE visible
31 Jul - 01:32:37 10° W 01:35:49 41° NNW 01:39:03 10° ENE visible
31 Jul - 03:09:56 10° WNW 03:13:02 33° N 03:16:09 10° ENE visible
31 Jul - 04:46:42 10° WNW 04:50:05 79° NNE 04:53:27 10° ESE visible
31 Jul - 06:24:00 10° W 06:26:29 19° SW 06:28:57 10° S daylight
31 Jul - 23:07:17 10° SSW 23:10:19 33° SE 23:13:22 10° ENE night (unlit)
01 Aug - 00:43:39 10° W 00:46:57 53° NNW 00:50:15 10° ENE visible
01 Aug - 02:21:02 10° WNW 02:24:07 32° N 02:27:11 10° ENE visible
01 Aug - 03:57:56 10° WNW 04:01:15 56° NNE 04:04:35 10° E visible
01 Aug - 05:34:51 10° WNW 05:37:51 30° SW 05:40:51 10° SSE daylight
01 Aug - 22:19:07 10° S 22:21:41 21° SE 22:24:16 10° E visible
01 Aug - 23:54:46 10° WSW 23:58:07 73° NNW 00:01:29 10° ENE visible
02 Aug - 01:32:06 10° WNW 01:35:11 33° N 01:38:16 10° ENE visible
02 Aug - 03:09:09 10° WNW 03:12:23 43° NNE 03:15:38 10° E visible
02 Aug - 04:45:54 10° WNW 04:49:10 48° SW 04:52:25 10° SE visible
02 Aug - 21:31:30 10° SSE 21:33:06 13° SE 21:34:42 10° ESE visible
02 Aug - 23:06:00 10° SW 23:09:19 76° SSE 23:12:41 10° ENE visible
03 Aug - 00:43:07 10° W 00:46:16 36° N 00:49:25 10° ENE visible
03 Aug - 02:20:20 10° WNW 02:23:30 36° N 02:26:39 10° E visible
03 Aug - 03:57:04 10° WNW 04:00:26 76° SSW 04:03:47 10° SE visible
03 Aug - 05:35:01 10° WSW 05:36:40 13° SW 05:38:19 10° SSW daylight
03 Aug - 22:17:22 10° SW 22:20:35 48° SE 22:23:50 10° ENE visible
03 Aug - 23:54:09 10° W 23:57:22 43° NNW 00:00:36 10° ENE visible
04 Aug - 01:31:29 10° WNW 01:34:35 33° N 01:37:40 10° ENE visible
04 Aug - 03:08:16 10° WNW 03:11:39 73° NNE 03:15:00 10° ESE visible
04 Aug - 04:45:28 10° W 04:48:05 21° SW 04:50:41 10° S visible
04 Aug - 21:28:57 10° SSW 21:31:55 30° SE 21:34:53 10° ENE visible
04 Aug - 23:05:12 10° W 23:08:30 56° NNW 23:11:49 10° ENE visible
